Skip Page Navigation
NASA JPL Caltech
NASA Logo - Jet Propulsion Laboratory + View the NASA Portal
+ Center for Near-Earth Object Studies
JPL Home Earth Solar System Stars & Galaxies Technology
JPL Solar System Dynamics
BODIES ORBITS EPHEMERIDES TOOLS PHYSICAL DATA DISCOVERY FAQ SITE MAP
JPL Small-Body Database Browser
Search: [ help ]  
324412 (2006 SL219)
Classification: Main-belt Asteroid          SPK-ID: 2324412
Ephemeris | Orbit Diagram | Orbital Elements | Mission Design | Physical Parameters | Discovery Circumstances | Close-Approach Data ]

[ show orbit diagram ]
Orbital Elements at Epoch 2459000.5 (2020-May-31.0) TDB
Reference: JPL 10 (heliocentric ecliptic J2000)
 Element Value Uncertainty (1-sigma)   Units 
e .1245114030694313 5.249e-08  
a 2.30492118788252 1.9058e-08 au
q 2.017932216814807 1.2346e-07 au
i .7513375326545775 6.3448e-06 deg
node 238.3083450832144 0.00060357 deg
peri 32.87878545637364 0.00060455 deg
M 37.65180173457772 3.5821e-05 deg
tp 2458866.820193124101
(2020-Jan-18.32019312)
0.0001269 TDB
period 1278.152127076778
3.50
1.5852e-05
4.34e-08
d
yr
n .281656613773624 3.4933e-09 deg/d
Q 2.591910158950232 2.1431e-08 au
  Orbit Determination Parameters
   # obs. used (total)      123  
   data-arc span      5621 days (15.39 yr)  
   first obs. used      2005-03-08  
   last obs. used      2020-07-28  
   planetary ephem.      DE431  
   SB-pert. ephem.      SB431-N16  
   condition code      0  
   norm. resid. RMS      .60333  
   source      ORB  
   producer      Otto Matic  
   solution date      2020-Aug-25 20:52:49  

Additional Information
 Earth MOID = 1.00177 au 
 Jupiter MOID = 2.4874 au 
 T_jup = 3.578 
[ show covariance matrix ]

Ephemeris | Orbit Diagram | Orbital Elements | Mission Design | Physical Parameters | Discovery Circumstances | Close-Approach Data ]

Physical Parameter Table
Parameter Symbol Value Units Sigma Reference Notes
absolute magnitude H 17.7   n/a MPO434049  

324412 (2006 SL219)          Discovered 2006-Sep-15 by Spacewatch at Kitt Peak
Reference: 20120406/Numbers.arcLast Updated: 2012-04-09

[ show close-approach data ]
Alternate Designations
 2006 SL219 = 2005 ED323 
Ephemeris | Orbit Diagram | Orbital Elements | Mission Design | Physical Parameters | Discovery Circumstances | Close-Approach Data ]
ABOUT SSD CREDITS/AWARDS PRIVACY/COPYRIGHT GLOSSARY LINKS
FirstGov 2020-Oct-28 12:37 UT
(server date/time)  
NASA Home Page
Site Manager:   Ryan S. Park
Webmaster  Alan B. Chamberlin